Location: Ebenezer
(18.2167°N, 63.0667°W)
Time: 15:27:52
(UTC+00:00)

H-2A R/B - Pass Details

Date: 26 January 2020
Orbit: 286 x 29123 km, 28.3° (Epoch: 17 February)

Event Time Altitude Azimuth Distance (km) Brightness Sun altitude
Rises 22:34:42 0° 300° (WNW) 2,050 4.9 -8.0°
Reaches altitude 10° 22:35:58 10° 307° (NW) 1,410 4.0 -8.3°
Maximum altitude 22:38:31 54° 27° (NNE) 753 1.8 -8.8°
Drops below altitude 10° 22:46:56 10° 105° (ESE) 4,562 5.4 -10.8°
Sets 22:55:34 0° 108° (ESE) 8,312 6.8 -12.7°
